Regional Weather Roundup
Issued by NWS

Home | Current Version | Previous Version | Text Only | Print | Product List | Glossary Off
Versions: 1 2 3 4 5 6 7 8 9 10 11 12 13 14 15 16 17 18 19 20 21 22 23 24 25 26 27 28 29 30 31 32 33 34 35 36 37 38 39 40 41 42 43 44 45 46 47 48 49 50

000
ASUS43 KLOT 220908
RWRIL

ILLINOIS REGIONAL WEATHER ROUNDUP
NATIONAL WEATHER SERVICE CHICAGO/ROMEOVILLE IL
300 AM CST WED NOV 22 2017

NOTE: "FAIR" INDICATES FEW OR NO CLOUDS BELOW 12,000 FEET WITH NO
SIGNIFICANT WEATHER AND/OR OBSTRUCTIONS TO VISIBILITY.

* THESE STATIONS ARE NOT UNDER NWS QUALITY CONTROL. THEY ALSO MAY NOT
  REPORT WEATHER SUCH AS PRECIPITATION OR FOG.

ILZ001-002-007-009-015-016-024-221000-
NORTHWEST ILLINOIS

CITY           SKY/WX    TMP DP  RH WIND       PRES   REMARKS
MOLINE         CLOUDY    22  14  71 NW6       30.35R WCI  14
STERLING*      CLEAR     19  15  84 W7        30.33R WCI  10
SAVANNA*       PTCLDY    23  15  72 NW6       30.33R WCI  16
$$

ILZ003-004-008-010-011-017-018-221000-
NORTH CENTRAL ILLINOIS

CITY           SKY/WX    TMP DP  RH WIND       PRES   REMARKS
ROCKFORD       PTCLDY    21  14  74 NW9       30.31R WCI  11
FREEPORT*      CLEAR     19  13  79 W7        30.32R WCI   9
ROCHELLE*      CLEAR     19  16  85 NW6       30.30S WCI  11
DE KALB*       CLEAR     20  15  82 NW6       30.29R WCI  12
PERU*          CLEAR     20  16  82 NW7       30.32R WCI  11
$$

ILZ005-006-012>014-019>023-221000-
NORTHEAST ILLINOIS

CITY           SKY/WX    TMP DP  RH WIND       PRES   REMARKS
CHICAGO-OHARE  PTCLDY    25  14  63 NW10      30.27R WCI  15
CHICAGO-MIDWAY PTCLDY    26  15  63 NW9       30.27R WCI  17
AURORA         CLEAR     18  15  88 W7        30.29R WCI   9
LANSING*       MOCLDY    25  17  69 NW9       30.26S WCI  16
JOLIET*        CLEAR     25  18  75 NW5       30.30R WCI  19
WAUKEGAN       CLEAR     22  14  71 NW3       30.26R
DUPAGE AIRPORT CLEAR     21  16  81 NW8       30.27R WCI  11
KANKAKEE*      CLEAR     24  17  73 NW6       30.29R WCI  17
WHEELING       CLEAR     24  16  71 NW9       30.29R WCI  14
MORRIS*        CLEAR     21  17  83 NW7       30.29R WCI  13
ROMEOVILLE*    CLEAR     21  17  81 NW7       30.29R WCI  13
NORTHERLY ISL    N/A     27  15  61 W8          N/A  WCI  19
$$

LMZ740>746-221000-
SOUTHERN LAKE MICHIGAN

STATION/POSITION SKY/WX   TEMP    WIND        PRES    VSBY  WAVE
                          AIR SEA DIR/SP/G                  HT/PER
                          (F)     (DEG/KT/KT) (MB)    (MI)  (FT/S)
SOUTHERN BUOY              30 47  350/ 12/ 17 1023.9          5/ 6
HARRISON CRIB              29     320/ 15/ 16   N/A
BURNHAM HARBOR             27     290/ 13/ 14   N/A
CALUMET HARBOR             26     300/  7/ 12 1024.0R
BURNS HARBOR               33     330/ 13/ 20 1024.4R
MICHIGAN CITY              33     320/ 15/ 22   N/A
$$

ILZ025>027-034>036-040-047-049-050-058-095>099-221000-
WEST-CENTRAL ILLINOIS

CITY           SKY/WX    TMP DP  RH WIND       PRES   REMARKS
QUINCY         CLOUDY    23  16  74 NW12      30.36R WCI  12
GALESBURG*     CLOUDY    19  16  86 W3        30.36R
MACOMB*        CLOUDY    20  17  89 NW10      30.38R WCI   9
JACKSONVILLE*  PTCLDY    22  18  82 NW6       30.35R WCI  15
PITTSFIELD*    CLOUDY    24  17  77 NW5       30.36R WCI  18
$$

ILZ028>032-037-038-041>044-048-051>054-059>061-221000-
CENTRAL ILLINOIS

CITY           SKY/WX    TMP DP  RH WIND       PRES   REMARKS
PONTIAC        CLEAR     23  21  89 NW7       30.32R WCI  15
BLOOMINGTON    CLEAR     22  17  81 N9        30.30R WCI  12
DECATUR        PTCLDY    25  18  74 NW8       30.30R WCI  16
PEORIA         CLEAR     22  16  78 NW5       30.34R WCI  16
LACON*         CLEAR     20  17  86 CALM      30.33R
LINCOLN*       PTCLDY    24  20  85 NW3       30.33R
SPRINGFIELD    PTCLDY    25  19  78 NW9       30.33R WCI  15
TAYLORVILLE    CLEAR     25  19  79 NW8       30.32R WCI  16
$$

ILZ033-039-045-046-055>057-062-063-221000-
EAST-CENTRAL ILLINOIS

CITY           SKY/WX    TMP DP  RH WIND       PRES   REMARKS
CHAMPAIGN      CLEAR     22  19  89 NW7       30.29R WCI  13
DANVILLE*      CLEAR     24  19  78 NW7       30.24S WCI  16
RANTOUL*       CLEAR     26  22  85 NW5       30.29R WCI  20
MATTOON        CLEAR     24  21  88 N9        30.27R WCI  14
PARIS*         CLEAR     24  21  89 NW6       30.28R WCI  17
$$

ILZ079-100>102-221000-
SOUTHWEST ILLINOIS

CITY           SKY/WX    TMP DP  RH WIND       PRES   REMARKS
ALTON          PTCLDY    26  20  77 NW3       30.34R
BELLEVILLE     PTCLDY    27  18  69 NW8       30.32R WCI  19
CAHOKIA*       CLOUDY    28  18  66 N7        30.35R WCI  21
SPARTA*        CLEAR     29  21  72 NW6       30.34R WCI  22
$$

ILZ064>066-069>071-074>076-080>082-084>086-088>090-092>094-221000-
SOUTH-CENTRAL ILLINOIS

CITY           SKY/WX    TMP DP  RH WIND       PRES   REMARKS
CARBONDALE     CLEAR     28  22  78 N7        30.31R WCI  21
CAIRO*         CLEAR     31  22  68 N8        30.31R WCI  24
EFFINGHAM*     CLEAR     28  23  80 NW5       30.31R WCI  23
MARION         CLEAR     30  22  71 NW5       30.32R WCI  26
MT. VERNON     CLEAR     28  21  75 CALM      30.31R
CENTRALIA*     CLEAR     29  22  76 NW8       30.30R WCI  21
SALEM*         CLEAR     28  22  78 NW6       30.30S WCI  22
METROPOLIS*    CLEAR     31  23  72 N5        30.29S WCI  26
$$

ILZ067-068-072-073-078-083-087-091-221000-
SOUTHEAST ILLINOIS

CITY           SKY/WX    TMP DP  RH WIND       PRES   REMARKS
LAWRENCEVILLE  CLEAR     29  22  75 N12       30.28R WCI  19
FLORA*         CLEAR     29  23  76 NW6       30.30R WCI  23
FAIRFIELD*     CLEAR     29  22  76 CALM      30.29R
HARRISBURG*    CLEAR     28  23  79 NW6       30.30R WCI  22
ROBINSON*      CLEAR     27  22  83 NW3       30.30R
CARMI*         CLEAR     27  23  84 NW5       30.29R WCI  22
$$

ABBREVIATIONS USED IN REMARKS
   TC - TEMPERATURE IN CELSIUS
  WCI - WIND CHILL INDEX
   HX - HEAT INDEX
  VSB - VISIBILITY
$$





USA.gov is the U.S. government's official web portal to all federal, state and local government web resources and services.